Tracking 35280 objects as of 6-Sep-2026
HD Live streaming from Space Station
objects crossing your sky now

GRUS-1C

Track GRUS-1C now!
10-day predictions


NORAD ID: 47933
Int'l Code: 2021-022B
Launch date: March 22, 2021
Source: Japan (JPN)
Launch site: TYURATAM MISSILE AND SPACE COMPLEX (TTMTR)
Your satellite tracking list
Your tracking list is empty




NASA's NSSDC Master Catalog

Two Line Element Set (TLE):
1 47933U 21022B   26249.64091479  .00000067  00000-0  10261-4 0  9993
2 47933  97.5250 129.9832 0014553  47.3184 312.9262 14.98817674298105
Source of the keplerian elements: AFSPC